Location: Easter Hill Village
(37.9235°N, 122.3444°W)
Time: 00:43:24
(UTC+00:00)

GPS 2-04 Rocket1 - Pass Details

Date: 16 September 2019
Orbit: 419 x 552 km, 35.6° (Epoch: 19 October)

Event Time Altitude Azimuth Distance (km) Brightness Sun altitude
Exits shadow 12:54:30 18° 243° (WSW) 1,371 4.2 -12.0°
Maximum altitude 12:56:24 24° 204° (SSW) 1,113 4.0 -11.7°
Drops below altitude 10° 12:59:40 10° 150° (SSE) 1,736 5.6 -11.0°
Sets 13:02:08 0° 136° (SE) 2,594 6.7 -10.6°
